Weather History for Harrisburg, PA

Change the Weather History Date:

Saturday, November 2, 2013

  Actual Average Record
Temperature  
Mean Temperature 54 °F -  
Max Temperature 63 °F 56 °F 82 °F (1971)
Min Temperature 45 °F 38 °F 27 °F (1930)
Degree Days  
Heating Degree Days 12    
Growing Degree Days 4 (Base 50)    
Moisture  
Dew Point 43 °F    
Average Humidity 69    
Maximum Humidity 97    
Minimum Humidity 47    
Precipitation  
Precipitation 0.00 in - - ()
Sea Level Pressure  
Sea Level Pressure 29.73 in    
Wind  
Wind Speed 3 mph (WNW)    
Max Wind Speed 14 mph    
Max Gust Speed 21 mph    
Visibility 10 miles    
Events      
Averages and records for this station are not official NWS values.
T = Trace of Precipitation, MM = Missing Value Source: NWS Daily Summary

Daily Weather History Graph

Daily Weather History Graph

Search for Another Location

Airport:

Trip Planner

Search our weather history database for the weather conditions in past years. The results will help you decide how hot, cold, wet, or windy it might be!

Date:

Astronomy

Nov. 02, 2013 Rise Set
Actual Time 7:38 AM EDT 6:03 PM EDT
Civil Twilight 7:09 AM EDT 6:31 PM EDT
Nautical Twilight 6:37 AM EDT 7:03 PM EDT
Astronomical Twilight 6:06 AM EDT 7:35 PM EDT
Moon 6:33 AM EDT (11/2) 5:33 PM EDT (11/2)
Length of Visible Light 11h 21m
Length of Day
10h 24m
Waning Crescent, 1% of the Moon is Illuminated
Nov 2
Waning Crescent
Nov 3
New
Nov 10
First Quarter
Nov 17
Full
Nov 25
Last Quarter

Hourly Weather History & Observations

Time (EDT) Temp. Dew Point Humidity Pressure Visibility Wind Dir Wind Speed Gust Speed Precip Events Conditions
12:56 AM 48.9 °F 46.0 °F 90% 29.68 in 10.0 mi Calm Calm - N/A   Mostly Cloudy
1:56 AM 50.0 °F 46.9 °F 89% 29.68 in 10.0 mi Calm Calm - N/A   Overcast
2:56 AM 51.1 °F 46.9 °F 86% 29.67 in 10.0 mi Calm Calm - N/A   Overcast
3:56 AM 48.9 °F 46.0 °F 90% 29.66 in 10.0 mi Calm Calm - N/A   Scattered Clouds
4:56 AM 48.0 °F 45.0 °F 89% 29.67 in 10.0 mi Calm Calm - N/A   Mostly Cloudy
5:56 AM 48.0 °F 46.0 °F 93% 29.68 in 10.0 mi Calm Calm - N/A   Mostly Cloudy
6:56 AM 46.9 °F 45.0 °F 93% 29.68 in 10.0 mi Calm Calm - N/A   Mostly Cloudy
7:56 AM 45.0 °F 44.1 °F 97% 29.69 in 10.0 mi Calm Calm - N/A   Clear
8:56 AM 48.9 °F 46.0 °F 90% 29.72 in 10.0 mi Calm Calm - N/A   Partly Cloudy
9:56 AM 54.0 °F 46.0 °F 75% 29.72 in 10.0 mi WNW 3.5 mph - N/A   Overcast
10:56 AM 55.9 °F 46.0 °F 69% 29.71 in 10.0 mi Calm Calm - N/A   Mostly Cloudy
11:56 AM 60.1 °F 44.1 °F 55% 29.71 in 10.0 mi WNW 9.2 mph - N/A   Clear
12:56 PM 62.1 °F 44.1 °F 52% 29.71 in 10.0 mi West 9.2 mph 16.1 mph N/A   Scattered Clouds
1:56 PM 61.0 °F 41.0 °F 48% 29.70 in 10.0 mi WNW 6.9 mph - N/A   Overcast
2:56 PM 60.1 °F 39.9 °F 47% 29.71 in 10.0 mi West 10.4 mph - N/A   Overcast
3:56 PM 59.0 °F 39.9 °F 49% 29.71 in 10.0 mi West 9.2 mph - N/A   Overcast
4:56 PM 59.0 °F 39.9 °F 49% 29.72 in 10.0 mi WNW 9.2 mph - N/A   Scattered Clouds
5:56 PM 57.0 °F 37.9 °F 49% 29.75 in 10.0 mi WNW 8.1 mph - 0.00 in   Overcast
6:56 PM 55.9 °F 37.0 °F 49% 29.78 in 10.0 mi WNW 11.5 mph - N/A   Overcast
7:56 PM 55.9 °F 37.0 °F 49% 29.81 in 10.0 mi WNW 13.8 mph 20.7 mph N/A   Overcast
8:56 PM 54.0 °F 39.0 °F 57% 29.82 in 10.0 mi WNW 8.1 mph - N/A   Overcast
9:56 PM 53.1 °F 39.0 °F 59% 29.83 in 10.0 mi WNW 11.5 mph - N/A   Partly Cloudy
10:56 PM 50.0 °F 39.0 °F 66% 29.85 in 10.0 mi WNW 4.6 mph - N/A   Partly Cloudy
11:56 PM 48.9 °F 39.0 °F 69% 29.86 in 10.0 mi West 8.1 mph - N/A   Clear